Regional Weather Roundup
Issued by NWS

Home | Current Version | Previous Version | Graphics & Text | Print | Product List | Glossary On
Versions: 1 2 3 4 5 6 7 8 9 10 11 12 13 14 15 16 17 18 19 20 21 22 23 24 25 26 27 28
000
ASUS45 KSLC 251010
RWRUT

UTAH REGIONAL WEATHER ROUNDUP
NATIONAL WEATHER SERVICE SALT LAKE CITY UT
400 AM MDT SAT OCT 25 2014

UTZ001>011-023>025-251100-

NORTHERN UTAH

CITY           SKY/WX    TMP DP  RH WIND       PRES   REMARKS
BRIGHAM CITY   CLEAR     52  33  48 CALM      30.09F
HILL AFB       CLEAR     54  28  37 SE8       30.11F
LOGAN          CLEAR     38  32  79 CALM      30.10F
OGDEN          CLEAR     52  31  44 SE7       30.09F
PROVO AIRPORT  CLEAR     48  28  46 SE5       30.14F
SALT LAKE CITY CLEAR     58  29  33 SE12      30.07F
VERNAL         CLEAR     43  32  65 W7        30.25S
WENDOVER       CLEAR     43  30  61 CALM      30.07F
HEBER CITY     CLEAR     37  30  75 CALM      30.21F
WEST JORDAN    CLEAR     61  36  39 S13       30.12F

$$

UTZ012>022-026-027-251100-

SOUTHERN/CENTRAL UTAH

CITY           SKY/WX    TMP DP  RH WIND       PRES   REMARKS
BLANDING       PTCLDY    49  30  48 NE9       30.36F
BRYCE CANYON   CLEAR     27  23  85 SW6       30.36F WCI  20
CEDAR CITY     PTCLDY    50  32  50 S9        30.21F
DELTA          CLEAR     54  29  38 S12       30.14F
HANKSVILLE       N/A     45  32  61 CALM      30.22F
MILFORD        CLEAR     45  29  53 S7        30.17F
MOAB/CYNLANDS  CLEAR     50  33  52 CALM      30.20F
PRICE          CLEAR     46  32  58 NE5       30.27S
ST GEORGE      SUNNY     57  32  38 CALM      30.13S
KANAB            N/A     41  30  65 NE5       30.27S

$$

REGIONAL REPORTS     COLORADO/ARIZONA

CITY           SKY/WX    TMP DP  RH WIND       PRES   REMARKS
CRAIG, CO      CLEAR     28  24  85 CALM      30.32S
GRAND JUNCTION CLEAR     46  32  58 E5        30.25S
RIFLE          PTCLDY    36  30  79 CALM      30.31F
MONTROSE       CLEAR     40  29  64 SE8       30.33F WCI  34
CORTEZ         CLEAR     33  26  75 CALM      30.33S
PAGE, AZ       CLEAR     59  33  37 W6        30.18F
GRAND CANYON   PTCLDY    32  23  69 E3        30.33F SMOKE
KINGMAN        CLEAR     62  40  44 S10       30.12S
FLAGSTAFF      CLEAR     36  30  79 CALM      30.36F

$$

REGIONAL REPORTS    NEVADA/IDAHO/WYOMING

CITY           SKY/WX    TMP DP  RH WIND       PRES   REMARKS
LAS VEGAS, NV  CLEAR     69  37  30 SW12      29.98F
ELY            CLEAR     50  29  44 SW13      30.19F
ELKO           CLEAR     55  25  31 NW5       30.04F
POCATELLO, ID  CLEAR     39  31  72 NE7       30.04F WCI  34
BURLEY         CLEAR     43  32  65 CALM      29.98S
EVANSTON, WY   CLEAR     47  20  34 E5        30.25F
ROCK SPRINGS   PTCLDY    43  26  51 SE10      30.26F

$$



USA.gov is the U.S. government's official web portal to all federal, state and local government web resources and services.